Regional Weather Roundup
Issued by NWS

Home | Current Version | Previous Version | Text Only | Print | Product List | Glossary On
Versions: 1 2 3 4 5 6 7 8 9 10 11 12 13 14 15 16 17 18 19 20 21 22 23 24 25 26 27 28 29 30 31 32 33 34 35 36 37 38 39 40 41 42 43 44 45 46 47 48 49 50
000
ASUS44 KMEG 241510
RWRTN
TENNESSEE HOURLY STATE WEATHER ROUNDUP
NATIONAL WEATHER SERVICE MEMPHIS TN
1000 AM CDT MON APR 24 2017

TNZ002-004-019-021-049-052-054-088>092-241600-
WEST TENNESSEE

CITY           SKY/WX    TMP DP  RH WIND       PRES   REMARKS
MEMPHIS INTL   MOSUNNY   64  50  60 NW9       29.91S
NWS MEMPHIS      N/A     62 N/A N/A MISG        N/A
JACKSON        RAIN      58  52  80 N8        29.91R
DYERSBURG      HAZE      63  48  59 NE10G16   29.92S VSB 1/4
SOMERVILLE     MOSUNNY   61  52  72 N10       29.89S
UNION CITY     SUNNY     63  50  63 NE10      29.90S
BOLIVAR        CLOUDY    57  52  82 N7        29.90R
PARIS          MOSUNNY   57  48  72 NE9       29.90S
HUNTINGDON     MOSUNNY   59  52  77 E8        29.88F
LEXINGTON      CLOUDY    54  52  94 W3        29.89S
SAVANNAH       CLOUDY    55  54  94 N7        29.88S
$$

TNZ008-025-027-028-033-062-065-066-241600-
NORTH MIDDLE TENNESSEE

CITY           SKY/WX    TMP DP  RH WIND       PRES   REMARKS
NASHVILLE      CLOUDY    58  53  84 N8        29.87R
PORTLAND       CLOUDY    57  54  88 NE6       29.85F
CLARKSVILLE    CLOUDY    60  51  72 VRB5      29.87S
SMYRNA         CLOUDY    57  54  89 N6        29.87R
COOKEVILLE     CLOUDY    57  54  88 NW5       29.82R
GALLATIN       PTSUNNY   59  54  82 VRB3      29.88S
CROSSVILLE     CLOUDY    54  50  86 NE3       29.83R
$$

TNZ061-075-076-078-094-096-097-241600-
SOUTH MIDDLE TENNESSEE

CITY           SKY/WX    TMP DP  RH WIND       PRES   REMARKS
FAYETTEVILLE     N/A     57  55  94 NW6       29.83S
TULLAHOMA      CLOUDY    55  54  94 N6        29.84S
WINCHESTER     CLOUDY    55  54  94 N5        29.84R
MCMINNVILLE    PTSUNNY   57  57 100 VRB5      29.84R
COLUMBIA       CLOUDY   N/A N/A N/A N6        29.85R
SHELBYVILLE    CLOUDY    57  55  94 NW8       29.85S
$$

TNZ017-018-042-046-047-241600-
NORTHEAST TENNESSEE

CITY           SKY/WX    TMP DP  RH WIND       PRES   REMARKS
TRI CITIES     MOSUNNY   61  51  70 NE8       29.83F
ELIZABETHTON   PTSUNNY   63  52  67 E8        29.82S
$$

TNZ012-013-036-069-073-074-241600-
CENTRAL EAST TENNESSEE

CITY           SKY/WX    TMP DP  RH WIND       PRES   REMARKS
KNOXVILLE      PTSUNNY   58  51  78 VRB5      29.81R
OAK RIDGE      CLOUDY    61  51  70 VRB5      29.83S
DOWNTOWN KNOXV MOSUNNY   61  54  77 CALM      29.82S
GATLINBURG     MOSUNNY   55  52  88 VRB6      29.81F
MORRISTOWN     MOSUNNY   61  52  72 E8        29.81S
JACKSBORO      PTSUNNY   61  52  72 VRB3      29.85F
$$

TNZ083-085-099-241600-
SOUTHEAST TENNESSEE

CITY           SKY/WX    TMP DP  RH WIND       PRES   REMARKS
CHATTANOOGA    PTSUNNY   60  53  77 N10       29.81S
$$

SKY/WX REPORTED AS FAIR MEANS FEW OR NO CLOUDS BELOW
12 THOUSAND FEET.




USA.gov is the U.S. government's official web portal to all federal, state and local government web resources and services.